CW2550 Weather Reports


Display with metric or nautical units.
time (UTC)temp
F
wind
direction
speed
MPH
gust
MPH
rain 1hr
in
rain 24hr
in
rain mn
in
humidity
%
barometer
mb
20260504194600 57 257 3.0 15.0 0.00 0.00 0.00 41 1000.1
20260504193041 57 288 4.0 19.0 0.00 0.00 0.00 39 1000.0
20260504191548 59 317 9.0 24.0 0.00 0.00 0.00 35 999.6
20260504184552 61 312 7.0 19.0 0.00 0.00 0.00 35 999.0
20260504183043 62 309 9.0 16.0 0.00 0.00 0.00 34 998.7
20260504181547 62 319 5.0 16.0 0.00 0.00 0.00 35 998.6
20260504180109 62 277 6.0 16.0 0.00 0.00 0.00 36 998.1
20260504174542 62 308 8.0 19.0 0.00 0.00 0.00 39 998.0
20260504173056 61 306 6.0 22.0 0.00 0.00 0.00 40 998.0
20260504171541 61 241 4.0 18.0 0.00 0.00 0.00 40 998.0
20260504081546 51 241 5.0 10.0 0.00 0.00 0.00 55 998.3
20260504050125 53 189 4.0 8.0 0.00 0.02 0.00 51 1001.7
20260504044551 54 190 4.0 7.0 0.00 0.02 0.02 51 1001.9
20260504043052 54 182 2.0 4.0 0.00 0.02 0.02 50 1002.2
20260504041547 54 184 2.0 5.0 0.00 0.02 0.02 49 1002.4
20260504040058 55 181 3.0 5.0 0.00 0.02 0.02 47 1002.6
20260504034549 56 185 2.0 8.0 0.00 0.02 0.02 46 1002.9
20260504033050 56 192 2.0 4.0 0.00 0.02 0.02 45 1003.1
20260504031617 55 242 2.0 4.0 0.00 0.02 0.02 45 1003.3
20260504030044 57 243 1.0 2.0 0.00 0.02 0.02 43 1003.4
20260504024546 58 243 2.0 4.0 0.00 0.02 0.02 41 1003.4
20260504023050 59 245 1.0 5.0 0.00 0.02 0.02 40 1003.4
20260504021547 60 246 1.0 3.0 0.00 0.02 0.02 37 1003.5
20260504020047 61 305 1.0 2.0 0.00 0.02 0.02 36 1003.6
20260504014550 62 0 0.0 0.0 0.00 0.02 0.02 34 1003.6
20260504013044 63 0 0.0 2.0 0.00 0.02 0.02 33 1003.6
20260504011546 64 0 0.0 3.0 0.00 0.02 0.02 32 1003.7
20260504010054 65 0 0.0 3.0 0.00 0.02 0.02 30 1003.6
20260504004548 66 292 0.0 3.0 0.00 0.02 0.02 30 1003.6
20260504003047 67 318 0.0 8.0 0.00 0.02 0.02 29 1003.7
20260504001606 67 333 2.0 10.0 0.00 0.02 0.02 29 1003.8
20260504000039 67 309 3.0 11.0 0.00 0.02 0.02 28 1003.7
20260503234548 68 304 3.0 10.0 0.00 0.02 0.02 28 1003.9
20260503233051 68 323 4.0 13.0 0.00 0.02 0.02 28 1004.0
20260503231550 68 331 3.0 14.0 0.00 0.02 0.02 28 1004.0
20260503230041 68 300 2.0 9.0 0.00 0.02 0.02 28 1004.1
20260503224554 68 355 4.0 13.0 0.00 0.02 0.02 28 1004.3
20260503223047 68 334 7.0 13.0 0.00 0.02 0.02 29 1004.3
20260503221543 69 309 4.0 11.0 0.00 0.02 0.02 28 1004.4
20260503220041 69 329 4.0 14.0 0.00 0.02 0.02 31 1004.3
20260503214555 69 325 7.0 15.0 0.00 0.02 0.02 31 1004.3
20260503213109 68 337 5.0 14.0 0.00 0.02 0.02 30 1004.4
20260503211605 69 301 8.0 13.0 0.00 0.02 0.02 29 1004.5
20260503210044 68 338 3.0 17.0 0.00 0.02 0.02 30 1004.6
20260503204559 69 248 3.0 13.0 0.00 0.02 0.02 29 1004.9
20260503203046 68 317 4.0 14.0 0.00 0.02 0.02 30 1004.9
20260503201545 68 318 4.0 16.0 0.00 0.02 0.02 32 1005.1
20260503200045 68 335 6.0 17.0 0.00 0.02 0.02 33 1005.2